Location: Newark
(25.5428°S, 54.5819°W)
Time: 14:04:15
(UTC+00:00)

N. Korean satellite - Visible Passes

Search period start: 23 July 2019 00:00
Search period end: 02 August 2019 00:00
Orbit: 456 x 508 km, 97.2° (Epoch: 22 July)

Date Brightness Start Highest point End Pass type
(mag) Time Alt. Az. Time Alt. Az. Time Alt. Az.
23 Jul 9.3 08:18:35 10° ENE 08:21:12 18° ESE 08:23:48 10° SSE visible
23 Jul 8.3 09:51:56 10° NW 09:54:25 17° W 09:56:53 10° SW visible
24 Jul 7.1 09:25:47 10° N 09:29:15 39° W 09:32:44 10° SSW visible
25 Jul 6.6 09:00:29 10° NNE 09:04:10 82° E 09:07:51 10° S visible
25 Jul 9.1 22:09:03 10° SSW 22:11:47 22° WSW 22:14:29 10° NW visible
26 Jul 8.3 08:35:49 10° NE 08:39:09 32° ESE 08:42:28 10° SSE visible
26 Jul 7.3 21:43:22 10° S 21:46:47 54° WSW 21:50:08 10° NNW visible
27 Jul 9.6 08:12:05 10° ENE 08:14:11 15° ESE 08:16:16 10° SE visible
27 Jul 8.0 09:44:30 10° NNW 09:47:20 21° W 09:50:10 10° SW visible
28 Jul 6.8 09:18:37 10° N 09:22:11 49° W 09:25:45 10° SSW visible
28 Jul 9.7 22:28:17 10° SW 22:29:40 12° WSW 22:31:02 10° W visible
29 Jul 7.0 08:53:28 10° NNE 08:57:06 63° ESE 09:00:43 10° S visible
29 Jul 8.7 22:01:43 10° SSW 22:04:42 27° WSW 22:07:40 10° NW visible
30 Jul 8.8 08:29:01 10° NE 08:32:05 26° ESE 08:35:09 10° SSE visible
30 Jul 6.8 21:36:12 10° S 21:39:40 72° WSW 21:43:06 10° NNW visible
31 Jul 9.8 08:05:50 10° E 08:07:08 12° ESE 08:08:26 10° SE visible
31 Jul 7.7 09:37:08 10° NNW 09:40:13 26° W 09:43:18 10° SW visible
01 Aug 6.5 09:11:28 10° N 09:15:05 64° W 09:18:42 10° SSW visible
01 Aug 9.5 22:20:31 10° SW 22:22:34 15° WSW 22:24:38 10° WNW visible
